This is the latest recevied weather packets stored in our database for station/object N0NPO. If no packets are shown the sender has not sent any weather packets the latest 10 day(s).
| Time | Temp. | Humidity | Pressure | Rain* | Wind** | Luminosity | Snow |
|---|---|---|---|---|---|---|---|
| 1778395124 | 8.89° C | 1% | 1022.4 hPa | 0 mm | - | 0 W/m² | - |
| 1778394820 | 8.89° C | 1% | 1022.6 hPa | 0 mm | - | 0 W/m² | - |
| 1778394517 | 8.89° C | 1% | 1022.6 hPa | 0 mm | - | 0 W/m² | - |
| 1778394213 | 8.89° C | 1% | 1022.4 hPa | 0 mm | - | 0 W/m² | - |
| 1778393908 | 8.33° C | 1% | 1022.4 hPa | 0 mm | - | 0 W/m² | - |
| 1778393605 | 8.33° C | 1% | 1022.4 hPa | 0 mm | - | 0 W/m² | - |
| 1778393301 | 7.78° C | 1% | 1022.5 hPa | 0 mm | - | 0 W/m² | - |
| 1778392999 | 7.78° C | 1% | 1022.3 hPa | 0 mm | - | 0 W/m² | - |
| 1778392695 | 8.33° C | 1% | 1022.4 hPa | 0 mm | - | 0 W/m² | - |
| 1778392394 | 8.89° C | 1% | 1022.1 hPa | 0 mm | - | 0 W/m² | - |
| 1778392093 | 9.44° C | 1% | 1022 hPa | 0 mm | - | 0 W/m² | - |
| 1778391790 | 10° C | 1% | 1022 hPa | 0 mm | - | 0 W/m² | - |
| 1778391489 | 10.56° C | 1% | 1022 hPa | 0 mm | - | 0 W/m² | - |
| 1778391180 | 10.56° C | 1% | 1022.1 hPa | 0 mm | - | 0 W/m² | - |
| 1778390876 | 10.56° C | 1% | 1022.1 hPa | 0 mm | - | 0 W/m² | - |
| 1778390572 | 11.11° C | 1% | 1021.9 hPa | 0 mm | - | 0 W/m² | - |
| 1778390268 | 11.11° C | 1% | 1021.7 hPa | 0 mm | - | 0 W/m² | - |
| 1778389965 | 10.56° C | 1% | 1021.9 hPa | 0 mm | - | 0 W/m² | - |
| 1778389662 | 10.56° C | 1% | 1021.9 hPa | 0 mm | - | 0 W/m² | - |
| 1778389359 | 10.56° C | 1% | 1022 hPa | 0 mm | - | 0 W/m² | - |
| 1778389056 | 11.11° C | 1% | 1021.7 hPa | 0 mm | - | 0 W/m² | - |
| 1778388752 | 11.67° C | 1% | 1021.8 hPa | 0 mm | - | 0 W/m² | - |
| 1778388449 | 11.67° C | 1% | 1021.8 hPa | 0 mm | - | 0 W/m² | - |
| 1778388147 | 11.11° C | 1% | 1021.9 hPa | 0 mm | - | 0 W/m² | - |
| 1778387841 | 11.11° C | 1% | 1021.9 hPa | 0 mm | - | 0 W/m² | - |
* Rain latest hour (hover to see other rain measurements)
** Current wind speed in m/s (hover to see current wind gust speed)